Regional Weather Roundup
Issued by NWS State College, PA

Home | Current Version | Previous Version | Text Only | Print | Product List | Glossary On
Versions: 1 2 3 4 5 6 7 8 9 10 11 12 13 14 15 16 17 18 19 20 21 22 23 24 25 26 27 28 29 30 31 32 33 34 35 36 37 38 39 40 41 42 43 44 45 46 47 48 49 50
000
ASUS41 KCTP 240710
RWRCTP

REGIONAL WEATHER ROUNDUP
NATIONAL WEATHER SERVICE STATE COLLEGE PA
300 AM EDT FRI MAR 24 2017

Note: "fair" indicates few or no clouds below 12,000 feet with no
significant weather and/or obstructions to visibility.

* = STATION THAT DOES NOT REPORT PRECIPITATION /E.G. RAIN...SNOW...ETC/
    THUNDER OR FOG.

PAZ002>004-007>009-013>016-020>023-029>032-240800-
WESTERN PENNSYLVANIA

CITY           SKY/WX    TMP DP  RH WIND       PRES   REMARKS
ERIE           CLOUDY    44  11  26 S21       30.15F
MEADVILLE      CLOUDY    41  11  29 VRB5      30.19F
FRANKLIN*      CLOUDY    36   9  32 S8G16     30.23S
NEW CASTLE     CLOUDY    41  14  33 S6        30.22F
BEAVER COUNTY  NOT AVBL
BUTLER*        CLOUDY    39  14  35 SE7       30.24F
PITTSBURGH INT CLOUDY    40  16  37 S7        30.24F
PITTSBURGH     CLOUDY    41  14  33 S10       30.24F
INDIANA*       CLEAR     39  16  38 S9        30.28F
LATROBE        CLOUDY    37  16  41 CALM      30.27F
WASHINGTON CO* CLOUDY    37  16  41 CALM      30.26F
$$

PAZ004>006-010>012-017>019-024>028-033>037-041-042-045-046-049>053-240800-
CENTRAL PENNSYLVANIA

CITY           SKY/WX    TMP DP  RH WIND       PRES   REMARKS
BRADFORD       CLOUDY    34   9  35 S9        30.22F
DUBOIS         CLOUDY    35  10  35 SE9       30.24F
CLEARFIELD       N/A    N/A N/A N/A MISG      30.30F
JOHNSTOWN      CLOUDY    35  13  40 S10       30.27F
ALTOONA        CLOUDY    35  16  45 S6        30.33F
STATE COLLEGE  CLOUDY    34  11  39 SW5       30.34F
WILLIAMSPORT   CLOUDY    35  12  38 NE10G22   30.39F
SELINSGROVE    CLOUDY    33  17  51 S3        30.40F
FT INDIANTOWN  PTCLDY    26  19  76 NE5       30.46F
CAPITAL CITY   CLOUDY    35  17  47 SE6       30.45F
HARRISBURG     MOCLDY    36  23  59 S7        30.45F
YORK           CLOUDY    34  19  54 VRB5      30.44F
$$

PAZ038>040-043-044-047-048-054-055-060>062-067>071-240800-
EASTERN PENNSYLVANIA

CITY           SKY/WX    TMP DP  RH WIND       PRES   REMARKS
SCRANTON       CLOUDY    30  12  47 VRB5      30.39F
MOUNT POCONO   CLOUDY    26   8  46 S7        30.39F
ALLENTOWN      CLOUDY    26  17  68 CALM      30.48F
QUAKERTOWN*    SUNNY     25  19  80 CALM      30.49F
READING        CLOUDY    32  16  51 S7        30.47F
LANCASTER      CLOUDY    29  18  63 NE5       30.47F
COATESVILLE    CLOUDY    30  10  43 S6        30.49F
POTTSTOWN      PTCLDY    27  17  66 CALM      30.51F
BLUE BELL      CLEAR     30  23  74 CALM      30.50F
DOYLESTOWN     CLEAR     26  19  74 S3        30.49F
WILLOW GROVE   NOT AVBL
NORTH PHILA    CLEAR     34  24  67 S5        30.54F
PHILADELPHIA   PTCLDY    33  26  75 S6        30.53F
$$



USA.gov is the U.S. government's official web portal to all federal, state and local government web resources and services.